owner,sensor,date,latitude,longitude,vertical_datum,wind_speed,wind_to_direction,wind_speed_of_gust,qcFlag 
TCOON,ioos:station:TCOON:013:1,2017-01-01T00:00:00Z,27.4847,-97.3181,0.0,2.2,140.0,2.5,'11111222,11111222,11111222' 
TCOON,ioos:station:TCOON:013:1,2017-01-01T00:12:00Z,27.4847,-97.3181,0.0,1.6,135.0,2.3,'11111222,11111222,11111222' 
TCOON,ioos:station:TCOON:013:1,2017-01-01T00:18:00Z,27.4847,-97.3181,0.0,2.1,124.0,2.3,'11111222,11111222,11111222' 
TCOON,ioos:station:TCOON:013:1,2017-01-01T00:24:00Z,27.4847,-97.3181,0.0,1.8,124.0,2.3,'1111122,1111122,1111122' 
TCOON,ioos:station:TCOON:013:1,2017-01-01T00:30:00Z,27.4847,-97.3181,0.0,1.6,129.0,2.1,'11111222,11111222,11111222' 
TCOON,ioos:station:TCOON:013:1,2017-01-01T00:36:00Z,27.4847,-97.3181,0.0,1.8,125.0,2.1,'11111222,11111222,11111222' 
TCOON,ioos:station:TCOON:013:1,2017-01-01T00:42:00Z,27.4847,-97.3181,0.0,2.2,122.0,2.6,'11111222,11111222,11111222' 
TCOON,ioos:station:TCOON:013:1,2017-01-01T00:48:00Z,27.4847,-97.3181,0.0,2.5,121.0,3.0,'11111222,11111222,11111222' 
TCOON,ioos:station:TCOON:013:1,2017-01-01T00:54:00Z,27.4847,-97.3181,0.0,2.2,118.0,2.7,'11111222,11111222,11111222' 
TCOON,ioos:station:TCOON:013:1,2017-01-01T01:00:00Z,27.4847,-97.3181,0.0,1.6,115.0,2.3,'11111222,11111222,11111222' 
TCOON,ioos:station:TCOON:013:1,2017-01-01T01:06:00Z,27.4847,-97.3181,0.0,1.5,112.0,1.8,'11111222,11111222,11111222' 
TCOON,ioos:station:TCOON:013:1,2017-01-01T01:12:00Z,27.4847,-97.3181,0.0,1.3,118.0,1.6,'11111222,11111222,11111222' 
TCOON,ioos:station:TCOON:013:1,2017-01-01T01:18:00Z,27.4847,-97.3181,0.0,0.9,101.0,1.5,'1111122,1111122,1111122' 
TCOON,ioos:station:TCOON:013:1,2017-01-01T01:24:00Z,27.4847,-97.3181,0.0,1.2,104.0,1.4,'11111222,11111222,11111222' 
TCOON,ioos:station:TCOON:013:1,2017-01-01T01:30:00Z,27.4847,-97.3181,0.0,0.8,93.0,1.1,'11111222,11111222,11111222' 
TCOON,ioos:station:TCOON:013:1,2017-01-01T01:36:00Z,27.4847,-97.3181,0.0,1.1,109.0,1.3,'11111222,11111222,11111222' 
TCOON,ioos:station:TCOON:013:1,2017-01-01T01:42:00Z,27.4847,-97.3181,0.0,1.3,121.0,1.4,'11111222,11111222,11111222' 
TCOON,ioos:station:TCOON:013:1,2017-01-01T01:48:00Z,27.4847,-97.3181,0.0,1.9,117.0,2.1,'11111222,11111222,11111222' 
TCOON,ioos:station:TCOON:013:1,2017-01-01T01:54:00Z,27.4847,-97.3181,0.0,1.7,110.0,2.0,'11111222,11111222,11111222' 
TCOON,ioos:station:TCOON:013:1,2017-01-01T02:00:00Z,27.4847,-97.3181,0.0,1.8,110.0,1.9,'11111222,11111222,11111222' 
TCOON,ioos:station:TCOON:013:1,2017-01-01T02:06:00Z,27.4847,-97.3181,0.0,2.1,111.0,2.2,'11111222,11111222,11111222' 
TCOON,ioos:station:TCOON:013:1,2017-01-01T02:12:00Z,27.4847,-97.3181,0.0,2.3,107.0,2.6,'11111222,11111222,11111222' 
TCOON,ioos:station:TCOON:013:1,2017-01-01T02:18:00Z,27.4847,-97.3181,0.0,2.4,102.0,2.7,'1111122,1111122,1111122' 
TCOON,ioos:station:TCOON:013:1,2017-01-01T02:24:00Z,27.4847,-97.3181,0.0,2.2,107.0,2.6,'11111222,11111222,11111222' 
TCOON,ioos:station:TCOON:013:1,2017-01-01T02:30:00Z,27.4847,-97.3181,0.0,2.1,109.0,2.4,'11111222,11111222,11111222' 
TCOON,ioos:station:TCOON:013:1,2017-01-01T02:36:00Z,27.4847,-97.3181,0.0,1.6,117.0,2.4,'11111222,11111222,11111222' 
TCOON,ioos:station:TCOON:013:1,2017-01-01T02:42:00Z,27.4847,-97.3181,0.0,2.2,118.0,2.4,'11111222,11111222,11111222' 
TCOON,ioos:station:TCOON:013:1,2017-01-01T02:48:00Z,27.4847,-97.3181,0.0,2.2,110.0,2.8,'11111222,11111222,11111222' 
TCOON,ioos:station:TCOON:013:1,2017-01-01T02:54:00Z,27.4847,-97.3181,0.0,1.7,98.0,2.2,'11111222,11111222,11111222' 
TCOON,ioos:station:TCOON:013:1,2017-01-01T03:00:00Z,27.4847,-97.3181,0.0,1.2,88.0,1.9,'11111222,11111222,11111222' 
TCOON,ioos:station:TCOON:013:1,2017-01-01T03:06:00Z,27.4847,-97.3181,0.0,1.3,95.0,1.5,'11111222,11111222,11111222' 
TCOON,ioos:station:TCOON:013:1,2017-01-01T03:12:00Z,27.4847,-97.3181,0.0,1.4,106.0,1.7,'11111222,11111222,11111222' 
TCOON,ioos:station:TCOON:013:1,2017-01-01T03:18:00Z,27.4847,-97.3181,0.0,1.7,98.0,1.9,'1111122,1111122,1111122' 
TCOON,ioos:station:TCOON:013:1,2017-01-01T03:24:00Z,27.4847,-97.3181,0.0,1.5,89.0,1.9,'11111222,11111222,11111222' 
TCOON,ioos:station:TCOON:013:1,2017-01-01T03:30:00Z,27.4847,-97.3181,0.0,1.5,90.0,2.0,'11111222,11111222,11111222' 
TCOON,ioos:station:TCOON:013:1,2017-01-01T03:36:00Z,27.4847,-97.3181,0.0,2.1,93.0,2.2,'11111222,11111222,11111222' 
TCOON,ioos:station:TCOON:013:1,2017-01-01T03:42:00Z,27.4847,-97.3181,0.0,2.1,86.0,2.4,'11111222,11111222,11111222' 
TCOON,ioos:station:TCOON:013:1,2017-01-01T03:48:00Z,27.4847,-97.3181,0.0,2.1,90.0,2.3,'11111222,11111222,11111222' 
TCOON,ioos:station:TCOON:013:1,2017-01-01T03:54:00Z,27.4847,-97.3181,0.0,2.3,91.0,2.5,'11111222,11111222,11111222' 
TCOON,ioos:station:TCOON:013:1,2017-01-01T04:00:00Z,27.4847,-97.3181,0.0,2.2,88.0,2.4,'11111222,11111222,11111222' 
TCOON,ioos:station:TCOON:013:1,2017-01-01T04:06:00Z,27.4847,-97.3181,0.0,2.0,85.0,2.5,'11111222,11111222,11111222' 
TCOON,ioos:station:TCOON:013:1,2017-01-01T04:12:00Z,27.4847,-97.3181,0.0,1.6,84.0,2.1,'11111222,11111222,11111222' 
TCOON,ioos:station:TCOON:013:1,2017-01-01T04:18:00Z,27.4847,-97.3181,0.0,1.9,83.0,2.2,'11111222,11111222,11111222' 
TCOON,ioos:station:TCOON:013:1,2017-01-01T04:24:00Z,27.4847,-97.3181,0.0,2.3,75.0,2.5,'11111222,11111222,11111222' 
TCOON,ioos:station:TCOON:013:1,2017-01-01T04:30:00Z,27.4847,-97.3181,0.0,1.9,73.0,2.3,'1111122,1111122,1111122' 
TCOON,ioos:station:TCOON:013:1,2017-01-01T04:36:00Z,27.4847,-97.3181,0.0,2.3,72.0,2.5,'11111222,11111222,11111222' 
TCOON,ioos:station:TCOON:013:1,2017-01-01T04:42:00Z,27.4847,-97.3181,0.0,2.0,77.0,2.5,'11111222,11111222,11111222' 
TCOON,ioos:station:TCOON:013:1,2017-01-01T04:48:00Z,27.4847,-97.3181,0.0,2.6,78.0,3.1,'11111222,11111222,11111222' 
TCOON,ioos:station:TCOON:013:1,2017-01-01T04:54:00Z,27.4847,-97.3181,0.0,2.9,79.0,3.0,'11111222,11111222,11111222' 
TCOON,ioos:station:TCOON:013:1,2017-01-01T05:00:00Z,27.4847,-97.3181,0.0,2.6,81.0,3.3,'11111222,11111222,11111222' 
TCOON,ioos:station:TCOON:013:1,2017-01-01T05:06:00Z,27.4847,-97.3181,0.0,2.9,78.0,3.2,'11111222,11111222,11111222' 
TCOON,ioos:station:TCOON:013:1,2017-01-01T05:12:00Z,27.4847,-97.3181,0.0,2.8,84.0,3.1,'11111222,11111222,11111222' 
TCOON,ioos:station:TCOON:013:1,2017-01-01T05:18:00Z,27.4847,-97.3181,0.0,2.3,91.0,2.9,'11111222,11111222,11111222' 
TCOON,ioos:station:TCOON:013:1,2017-01-01T05:24:00Z,27.4847,-97.3181,0.0,2.8,97.0,3.0,'1111122,1111122,1111122' 
TCOON,ioos:station:TCOON:013:1,2017-01-01T05:30:00Z,27.4847,-97.3181,0.0,2.4,96.0,3.1,'11111222,11111222,11111222' 
TCOON,ioos:station:TCOON:013:1,2017-01-01T05:36:00Z,27.4847,-97.3181,0.0,2.0,91.0,2.5,'11111222,11111222,11111222' 
TCOON,ioos:station:TCOON:013:1,2017-01-01T05:42:00Z,27.4847,-97.3181,0.0,2.1,87.0,2.5,'11111222,11111222,11111222' 
TCOON,ioos:station:TCOON:013:1,2017-01-01T05:48:00Z,27.4847,-97.3181,0.0,2.4,87.0,2.7,'11111222,11111222,11111222' 
TCOON,ioos:station:TCOON:013:1,2017-01-01T05:54:00Z,27.4847,-97.3181,0.0,2.4,92.0,2.7,'11111222,11111222,11111222' 
TCOON,ioos:station:TCOON:013:1,2017-01-01T06:00:00Z,27.4847,-97.3181,0.0,2.6,86.0,2.9,'11111222,11111222,11111222' 
TCOON,ioos:station:TCOON:013:1,2017-01-01T06:06:00Z,27.4847,-97.3181,0.0,2.3,90.0,2.7,'11111222,11111222,11111222' 
TCOON,ioos:station:TCOON:013:1,2017-01-01T06:12:00Z,27.4847,-97.3181,0.0,2.2,89.0,2.5,'11111222,11111222,11111222' 
TCOON,ioos:station:TCOON:013:1,2017-01-01T06:18:00Z,27.4847,-97.3181,0.0,2.2,88.0,2.4,'1111122,1111122,1111122' 
TCOON,ioos:station:TCOON:013:1,2017-01-01T06:24:00Z,27.4847,-97.3181,0.0,1.9,89.0,2.6,'11111222,11111222,11111222' 
TCOON,ioos:station:TCOON:013:1,2017-01-01T06:30:00Z,27.4847,-97.3181,0.0,1.5,90.0,2.1,'11111222,11111222,11111222' 
TCOON,ioos:station:TCOON:013:1,2017-01-01T06:36:00Z,27.4847,-97.3181,0.0,2.4,100.0,2.7,'11111222,11111222,11111222' 
TCOON,ioos:station:TCOON:013:1,2017-01-01T06:42:00Z,27.4847,-97.3181,0.0,2.2,98.0,2.8,'11111222,11111222,11111222' 
TCOON,ioos:station:TCOON:013:1,2017-01-01T06:48:00Z,27.4847,-97.3181,0.0,2.3,105.0,2.6,'11111222,11111222,11111222' 
TCOON,ioos:station:TCOON:013:1,2017-01-01T06:54:00Z,27.4847,-97.3181,0.0,1.8,104.0,2.4,'11111222,11111222,11111222' 
TCOON,ioos:station:TCOON:013:1,2017-01-01T07:00:00Z,27.4847,-97.3181,0.0,1.8,115.0,2.1,'11111222,11111222,11111222' 
TCOON,ioos:station:TCOON:013:1,2017-01-01T07:06:00Z,27.4847,-97.3181,0.0,1.9,113.0,2.3,'11111222,11111222,11111222' 
TCOON,ioos:station:TCOON:013:1,2017-01-01T07:12:00Z,27.4847,-97.3181,0.0,1.8,114.0,2.3,'11111222,11111222,11111222' 
TCOON,ioos:station:TCOON:013:1,2017-01-01T07:18:00Z,27.4847,-97.3181,0.0,2.1,120.0,2.4,'1111122,1111122,1111122' 
TCOON,ioos:station:TCOON:013:1,2017-01-01T07:24:00Z,27.4847,-97.3181,0.0,2.2,113.0,2.6,'11111222,11111222,11111222' 
TCOON,ioos:station:TCOON:013:1,2017-01-01T07:30:00Z,27.4847,-97.3181,0.0,2.0,121.0,2.4,'11111222,11111222,11111222' 
TCOON,ioos:station:TCOON:013:1,2017-01-01T07:36:00Z,27.4847,-97.3181,0.0,2.6,132.0,2.9,'11111222,11111222,11111222' 
TCOON,ioos:station:TCOON:013:1,2017-01-01T07:42:00Z,27.4847,-97.3181,0.0,2.9,157.0,3.1,'11111222,11111222,11111222' 
TCOON,ioos:station:TCOON:013:1,2017-01-01T07:48:00Z,27.4847,-97.3181,0.0,3.1,187.0,3.6,'11111222,11111222,11111222' 
TCOON,ioos:station:TCOON:013:1,2017-01-01T07:54:00Z,27.4847,-97.3181,0.0,3.6,217.0,3.9,'11111222,11111222,11111222' 
TCOON,ioos:station:TCOON:013:1,2017-01-01T08:00:00Z,27.4847,-97.3181,0.0,3.3,228.0,4.1,'11111222,11111222,11111222' 
TCOON,ioos:station:TCOON:013:1,2017-01-01T08:06:00Z,27.4847,-97.3181,0.0,2.1,229.0,3.5,'11111222,11111222,11111222' 
TCOON,ioos:station:TCOON:013:1,2017-01-01T08:12:00Z,27.4847,-97.3181,0.0,2.5,192.0,2.8,'11111222,11111222,11111222' 
TCOON,ioos:station:TCOON:013:1,2017-01-01T08:18:00Z,27.4847,-97.3181,0.0,1.7,200.0,2.5,'1111122,1111122,1111122' 
TCOON,ioos:station:TCOON:013:1,2017-01-01T08:24:00Z,27.4847,-97.3181,0.0,2.1,199.0,2.2,'11111222,11111222,11111222' 
TCOON,ioos:station:TCOON:013:1,2017-01-01T08:30:00Z,27.4847,-97.3181,0.0,2.1,201.0,2.5,'11111222,11111222,11111222' 
TCOON,ioos:station:TCOON:013:1,2017-01-01T08:36:00Z,27.4847,-97.3181,0.0,2.6,203.0,2.8,'11111222,11111222,11111222' 
TCOON,ioos:station:TCOON:013:1,2017-01-01T08:42:00Z,27.4847,-97.3181,0.0,2.9,221.0,3.1,'11111222,11111222,11111222' 
TCOON,ioos:station:TCOON:013:1,2017-01-01T08:48:00Z,27.4847,-97.3181,0.0,3.1,228.0,3.4,'11111222,11111222,11111222' 
TCOON,ioos:station:TCOON:013:1,2017-01-01T08:54:00Z,27.4847,-97.3181,0.0,3.5,229.0,3.9,'11111222,11111222,11111222' 
TCOON,ioos:station:TCOON:013:1,2017-01-01T09:00:00Z,27.4847,-97.3181,0.0,3.0,225.0,3.8,'11111222,11111222,11111222' 
TCOON,ioos:station:TCOON:013:1,2017-01-01T09:06:00Z,27.4847,-97.3181,0.0,3.1,216.0,3.3,'11111222,11111222,11111222' 
TCOON,ioos:station:TCOON:013:1,2017-01-01T09:12:00Z,27.4847,-97.3181,0.0,2.1,195.0,3.1,'11111222,11111222,11111222' 
TCOON,ioos:station:TCOON:013:1,2017-01-01T09:18:00Z,27.4847,-97.3181,0.0,2.6,199.0,2.8,'11111222,11111222,11111222' 
TCOON,ioos:station:TCOON:013:1,2017-01-01T09:24:00Z,27.4847,-97.3181,0.0,2.6,199.0,2.7,'1111122,1111122,1111122' 
TCOON,ioos:station:TCOON:013:1,2017-01-01T09:30:00Z,27.4847,-97.3181,0.0,2.0,186.0,2.7,'11111222,11111222,11111222' 
TCOON,ioos:station:TCOON:013:1,2017-01-01T09:36:00Z,27.4847,-97.3181,0.0,1.8,183.0,2.3,'11111222,11111222,11111222' 
TCOON,ioos:station:TCOON:013:1,2017-01-01T09:42:00Z,27.4847,-97.3181,0.0,2.1,179.0,2.6,'11111222,11111222,11111222' 
TCOON,ioos:station:TCOON:013:1,2017-01-01T09:48:00Z,27.4847,-97.3181,0.0,1.4,194.0,2.2,'11111222,11111222,11111222' 
TCOON,ioos:station:TCOON:013:1,2017-01-01T09:54:00Z,27.4847,-97.3181,0.0,1.6,195.0,1.8,'11111222,11111222,11111222' 
TCOON,ioos:station:TCOON:013:1,2017-01-01T10:00:00Z,27.4847,-97.3181,0.0,2.2,212.0,2.4,'11111222,11111222,11111222' 
TCOON,ioos:station:TCOON:013:1,2017-01-01T10:06:00Z,27.4847,-97.3181,0.0,1.1,187.0,2.5,'11111222,11111222,11111222' 
TCOON,ioos:station:TCOON:013:1,2017-01-01T10:12:00Z,27.4847,-97.3181,0.0,1.5,200.0,1.6,'11111222,11111222,11111222' 
TCOON,ioos:station:TCOON:013:1,2017-01-01T10:18:00Z,27.4847,-97.3181,0.0,2.0,204.0,2.1,'1111122,1111122,1111122' 
TCOON,ioos:station:TCOON:013:1,2017-01-01T10:24:00Z,27.4847,-97.3181,0.0,2.1,219.0,2.2,'11111222,11111222,11111222' 
TCOON,ioos:station:TCOON:013:1,2017-01-01T10:30:00Z,27.4847,-97.3181,0.0,2.0,203.0,2.1,'11111222,11111222,11111222' 
TCOON,ioos:station:TCOON:013:1,2017-01-01T10:36:00Z,27.4847,-97.3181,0.0,1.2,228.0,2.0,'11111222,11111222,11111222' 
TCOON,ioos:station:TCOON:013:1,2017-01-01T10:42:00Z,27.4847,-97.3181,0.0,1.6,187.0,2.1,'11111222,11111222,11111222' 
TCOON,ioos:station:TCOON:013:1,2017-01-01T10:48:00Z,27.4847,-97.3181,0.0,1.4,229.0,1.7,'11111222,11111222,11111222' 
TCOON,ioos:station:TCOON:013:1,2017-01-01T10:54:00Z,27.4847,-97.3181,0.0,2.2,224.0,2.6,'11111222,11111222,11111222' 
TCOON,ioos:station:TCOON:013:1,2017-01-01T11:00:00Z,27.4847,-97.3181,0.0,1.0,194.0,2.1,'11111222,11111222,11111222' 
TCOON,ioos:station:TCOON:013:1,2017-01-01T11:06:00Z,27.4847,-97.3181,0.0,2.1,210.0,2.2,'11111222,11111222,11111222' 
TCOON,ioos:station:TCOON:013:1,2017-01-01T11:12:00Z,27.4847,-97.3181,0.0,2.3,230.0,2.9,'11111222,11111222,11111222' 
TCOON,ioos:station:TCOON:013:1,2017-01-01T11:18:00Z,27.4847,-97.3181,0.0,2.0,244.0,2.6,'1111122,1111122,1111122' 
TCOON,ioos:station:TCOON:013:1,2017-01-01T11:24:00Z,27.4847,-97.3181,0.0,1.5,224.0,1.9,'11111222,11111222,11111222' 
TCOON,ioos:station:TCOON:013:1,2017-01-01T11:30:00Z,27.4847,-97.3181,0.0,2.3,236.0,2.8,'11111222,11111222,11111222' 
TCOON,ioos:station:TCOON:013:1,2017-01-01T11:36:00Z,27.4847,-97.3181,0.0,1.9,244.0,2.1,'11111222,11111222,11111222' 
TCOON,ioos:station:TCOON:013:1,2017-01-01T11:42:00Z,27.4847,-97.3181,0.0,1.2,242.0,1.8,'11111222,11111222,11111222' 
TCOON,ioos:station:TCOON:013:1,2017-01-01T11:48:00Z,27.4847,-97.3181,0.0,0.7,253.0,1.4,'11111222,11111222,11111222' 
TCOON,ioos:station:TCOON:013:1,2017-01-01T11:54:00Z,27.4847,-97.3181,0.0,0.3,246.0,1.1,'11111222,11111222,11111222' 
TCOON,ioos:station:TCOON:013:1,2017-01-01T12:00:00Z,27.4847,-97.3181,0.0,0.2,341.0,0.5,'11111222,11111222,11111222' 
TCOON,ioos:station:TCOON:013:1,2017-01-01T12:06:00Z,27.4847,-97.3181,0.0,0.8,352.0,1.4,'11111222,11111222,11111222' 
TCOON,ioos:station:TCOON:013:1,2017-01-01T12:12:00Z,27.4847,-97.3181,0.0,2.0,335.0,2.7,'11111222,11111222,11111222' 
TCOON,ioos:station:TCOON:013:1,2017-01-01T12:18:00Z,27.4847,-97.3181,0.0,2.5,330.0,3.7,'1111122,1111122,1111122' 
TCOON,ioos:station:TCOON:013:1,2017-01-01T12:24:00Z,27.4847,-97.3181,0.0,1.2,279.0,2.9,'11111222,11111222,11111222' 
TCOON,ioos:station:TCOON:013:1,2017-01-01T12:30:00Z,27.4847,-97.3181,0.0,0.9,124.0,1.5,'11111222,11111222,11111222' 
TCOON,ioos:station:TCOON:013:1,2017-01-01T12:36:00Z,27.4847,-97.3181,0.0,1.4,193.0,1.6,'11111222,11111222,11111222' 
TCOON,ioos:station:TCOON:013:1,2017-01-01T12:42:00Z,27.4847,-97.3181,0.0,2.5,152.0,3.0,'11111222,11111222,11111222' 
TCOON,ioos:station:TCOON:013:1,2017-01-01T12:48:00Z,27.4847,-97.3181,0.0,1.6,140.0,4.1,'11111222,11111222,11111222' 
TCOON,ioos:station:TCOON:013:1,2017-01-01T12:54:00Z,27.4847,-97.3181,0.0,1.8,156.0,2.8,'11111222,11111222,11111222' 
TCOON,ioos:station:TCOON:013:1,2017-01-01T13:00:00Z,27.4847,-97.3181,0.0,3.3,171.0,3.6,'11111222,11111222,11111222' 
TCOON,ioos:station:TCOON:013:1,2017-01-01T13:06:00Z,27.4847,-97.3181,0.0,5.1,135.0,5.6,'11111222,11111222,11111222' 
TCOON,ioos:station:TCOON:013:1,2017-01-01T13:12:00Z,27.4847,-97.3181,0.0,2.9,136.0,6.0,'11111222,11111222,11111222' 
TCOON,ioos:station:TCOON:013:1,2017-01-01T13:18:00Z,27.4847,-97.3181,0.0,2.7,135.0,3.5,'1111122,1111122,1111122' 
TCOON,ioos:station:TCOON:013:1,2017-01-01T13:24:00Z,27.4847,-97.3181,0.0,6.3,134.0,7.1,'11111222,11111222,11111222' 
TCOON,ioos:station:TCOON:013:1,2017-01-01T13:30:00Z,27.4847,-97.3181,0.0,5.8,135.0,7.8,'11111222,11111222,11111222' 
TCOON,ioos:station:TCOON:013:1,2017-01-01T13:36:00Z,27.4847,-97.3181,0.0,6.3,144.0,7.5,'11111222,11111222,11111222' 
TCOON,ioos:station:TCOON:013:1,2017-01-01T13:42:00Z,27.4847,-97.3181,0.0,8.3,133.0,9.7,'11111222,11111222,11111222' 
TCOON,ioos:station:TCOON:013:1,2017-01-01T13:48:00Z,27.4847,-97.3181,0.0,10.4,122.0,11.6,'11111222,11111222,11111222' 
TCOON,ioos:station:TCOON:013:1,2017-01-01T13:54:00Z,27.4847,-97.3181,0.0,11.0,115.0,12.9,'11111222,11111222,11111222' 
TCOON,ioos:station:TCOON:013:1,2017-01-01T14:00:00Z,27.4847,-97.3181,0.0,9.7,123.0,12.4,'11111222,11111222,11111222' 
TCOON,ioos:station:TCOON:013:1,2017-01-01T14:06:00Z,27.4847,-97.3181,0.0,9.7,123.0,10.9,'11111222,11111222,11111222' 
TCOON,ioos:station:TCOON:013:1,2017-01-01T14:12:00Z,27.4847,-97.3181,0.0,9.2,118.0,11.5,'11111222,11111222,11111222' 
TCOON,ioos:station:TCOON:013:1,2017-01-01T14:18:00Z,27.4847,-97.3181,0.0,9.0,119.0,11.8,'11111222,11111222,11111222' 
TCOON,ioos:station:TCOON:013:1,2017-01-01T14:24:00Z,27.4847,-97.3181,0.0,8.9,126.0,10.5,'1111122,1111122,1111122' 
TCOON,ioos:station:TCOON:013:1,2017-01-01T14:30:00Z,27.4847,-97.3181,0.0,7.5,113.0,9.4,'11111222,11111222,11111222' 
TCOON,ioos:station:TCOON:013:1,2017-01-01T14:36:00Z,27.4847,-97.3181,0.0,5.8,124.0,8.1,'11111222,11111222,11111222' 
TCOON,ioos:station:TCOON:013:1,2017-01-01T14:42:00Z,27.4847,-97.3181,0.0,6.4,99.0,7.3,'11111222,11111222,11111222' 
TCOON,ioos:station:TCOON:013:1,2017-01-01T14:48:00Z,27.4847,-97.3181,0.0,4.6,96.0,6.9,'11111222,11111222,11111222' 
TCOON,ioos:station:TCOON:013:1,2017-01-01T14:54:00Z,27.4847,-97.3181,0.0,5.8,106.0,7.6,'11111222,11111222,11111222' 
TCOON,ioos:station:TCOON:013:1,2017-01-01T15:00:00Z,27.4847,-97.3181,0.0,6.9,132.0,8.9,'11111222,11111222,11111222' 
TCOON,ioos:station:TCOON:013:1,2017-01-01T15:06:00Z,27.4847,-97.3181,0.0,7.3,124.0,9.4,'11111222,11111222,11111222' 
TCOON,ioos:station:TCOON:013:1,2017-01-01T15:12:00Z,27.4847,-97.3181,0.0,6.6,117.0,8.6,'11111222,11111222,11111222' 
TCOON,ioos:station:TCOON:013:1,2017-01-01T15:18:00Z,27.4847,-97.3181,0.0,6.1,118.0,8.1,'1111122,1111122,1111122' 
TCOON,ioos:station:TCOON:013:1,2017-01-01T15:24:00Z,27.4847,-97.3181,0.0,7.0,118.0,9.3,'11111222,11111222,11111222' 
TCOON,ioos:station:TCOON:013:1,2017-01-01T15:30:00Z,27.4847,-97.3181,0.0,6.9,119.0,8.6,'11111222,11111222,11111222' 
TCOON,ioos:station:TCOON:013:1,2017-01-01T15:36:00Z,27.4847,-97.3181,0.0,7.4,123.0,9.1,'11111222,11111222,11111222' 
TCOON,ioos:station:TCOON:013:1,2017-01-01T15:42:00Z,27.4847,-97.3181,0.0,7.3,122.0,9.4,'11111222,11111222,11111222' 
TCOON,ioos:station:TCOON:013:1,2017-01-01T15:48:00Z,27.4847,-97.3181,0.0,6.8,123.0,9.8,'11111222,11111222,11111222' 
TCOON,ioos:station:TCOON:013:1,2017-01-01T15:54:00Z,27.4847,-97.3181,0.0,8.1,124.0,9.3,'11111222,11111222,11111222' 
TCOON,ioos:station:TCOON:013:1,2017-01-01T16:00:00Z,27.4847,-97.3181,0.0,7.5,121.0,9.7,'11111222,11111222,11111222' 
TCOON,ioos:station:TCOON:013:1,2017-01-01T16:06:00Z,27.4847,-97.3181,0.0,7.2,121.0,9.4,'11111222,11111222,11111222' 
TCOON,ioos:station:TCOON:013:1,2017-01-01T16:12:00Z,27.4847,-97.3181,0.0,6.5,122.0,8.9,'11111222,11111222,11111222' 
TCOON,ioos:station:TCOON:013:1,2017-01-01T16:18:00Z,27.4847,-97.3181,0.0,6.8,121.0,8.7,'1111122,1111122,1111122' 
TCOON,ioos:station:TCOON:013:1,2017-01-01T16:24:00Z,27.4847,-97.3181,0.0,6.0,124.0,8.1,'11111222,11111222,11111222' 
TCOON,ioos:station:TCOON:013:1,2017-01-01T16:30:00Z,27.4847,-97.3181,0.0,5.7,125.0,7.4,'11111222,11111222,11111222' 
TCOON,ioos:station:TCOON:013:1,2017-01-01T16:36:00Z,27.4847,-97.3181,0.0,4.2,124.0,5.8,'11111222,11111222,11111222' 
TCOON,ioos:station:TCOON:013:1,2017-01-01T16:42:00Z,27.4847,-97.3181,0.0,4.5,116.0,6.5,'11111222,11111222,11111222' 
TCOON,ioos:station:TCOON:013:1,2017-01-01T16:48:00Z,27.4847,-97.3181,0.0,4.3,118.0,6.6,'11111222,11111222,11111222' 
TCOON,ioos:station:TCOON:013:1,2017-01-01T16:54:00Z,27.4847,-97.3181,0.0,2.8,118.0,4.4,'11111222,11111222,11111222' 
TCOON,ioos:station:TCOON:013:1,2017-01-01T17:00:00Z,27.4847,-97.3181,0.0,3.2,261.0,4.0,'11111222,11111222,11111222' 
TCOON,ioos:station:TCOON:013:1,2017-01-01T17:06:00Z,27.4847,-97.3181,0.0,3.6,261.0,4.2,'11111222,11111222,11111222' 
TCOON,ioos:station:TCOON:013:1,2017-01-01T17:12:00Z,27.4847,-97.3181,0.0,3.1,262.0,4.3,'11111222,11111222,11111222' 
TCOON,ioos:station:TCOON:013:1,2017-01-01T17:18:00Z,27.4847,-97.3181,0.0,2.7,249.0,3.1,'1111122,1111122,1111122' 
TCOON,ioos:station:TCOON:013:1,2017-01-01T17:24:00Z,27.4847,-97.3181,0.0,2.7,220.0,3.2,'11111222,11111222,11111222' 
TCOON,ioos:station:TCOON:013:1,2017-01-01T17:30:00Z,27.4847,-97.3181,0.0,2.3,201.0,3.0,'11111222,11111222,11111222' 
TCOON,ioos:station:TCOON:013:1,2017-01-01T17:36:00Z,27.4847,-97.3181,0.0,2.7,225.0,3.0,'11111222,11111222,11111222' 
TCOON,ioos:station:TCOON:013:1,2017-01-01T17:42:00Z,27.4847,-97.3181,0.0,3.1,195.0,3.6,'11111222,11111222,11111222' 
TCOON,ioos:station:TCOON:013:1,2017-01-01T17:48:00Z,27.4847,-97.3181,0.0,3.0,214.0,3.7,'11111222,11111222,11111222' 
TCOON,ioos:station:TCOON:013:1,2017-01-01T17:54:00Z,27.4847,-97.3181,0.0,2.0,201.0,3.5,'11111222,11111222,11111222' 
TCOON,ioos:station:TCOON:013:1,2017-01-01T18:00:00Z,27.4847,-97.3181,0.0,2.4,203.0,3.3,'11111222,11111222,11111222' 
TCOON,ioos:station:TCOON:013:1,2017-01-01T18:06:00Z,27.4847,-97.3181,0.0,1.8,210.0,3.1,'11111222,11111222,11111222' 
TCOON,ioos:station:TCOON:013:1,2017-01-01T18:12:00Z,27.4847,-97.3181,0.0,2.2,226.0,2.5,'11111222,11111222,11111222' 
TCOON,ioos:station:TCOON:013:1,2017-01-01T18:18:00Z,27.4847,-97.3181,0.0,2.7,197.0,3.2,'11111222,11111222,11111222' 
TCOON,ioos:station:TCOON:013:1,2017-01-01T18:24:00Z,27.4847,-97.3181,0.0,2.9,205.0,3.3,'1111122,1111122,1111122' 
TCOON,ioos:station:TCOON:013:1,2017-01-01T18:30:00Z,27.4847,-97.3181,0.0,3.1,205.0,3.5,'11111222,11111222,11111222' 
TCOON,ioos:station:TCOON:013:1,2017-01-01T18:36:00Z,27.4847,-97.3181,0.0,4.2,204.0,5.5,'11111222,11111222,11111222' 
TCOON,ioos:station:TCOON:013:1,2017-01-01T18:42:00Z,27.4847,-97.3181,0.0,3.7,198.0,4.3,'11111222,11111222,11111222' 
TCOON,ioos:station:TCOON:013:1,2017-01-01T18:48:00Z,27.4847,-97.3181,0.0,3.1,196.0,4.1,'11111222,11111222,11111222' 
TCOON,ioos:station:TCOON:013:1,2017-01-01T18:54:00Z,27.4847,-97.3181,0.0,3.0,193.0,4.1,'11111222,11111222,11111222' 
TCOON,ioos:station:TCOON:013:1,2017-01-01T19:00:00Z,27.4847,-97.3181,0.0,3.9,165.0,5.0,'11111222,11111222,11111222' 
TCOON,ioos:station:TCOON:013:1,2017-01-01T19:06:00Z,27.4847,-97.3181,0.0,3.0,178.0,3.7,'11111222,11111222,11111222' 
TCOON,ioos:station:TCOON:013:1,2017-01-01T19:12:00Z,27.4847,-97.3181,0.0,2.9,186.0,4.4,'11111222,11111222,11111222' 
TCOON,ioos:station:TCOON:013:1,2017-01-01T19:18:00Z,27.4847,-97.3181,0.0,4.8,157.0,5.9,'1111122,1111122,1111122' 
TCOON,ioos:station:TCOON:013:1,2017-01-01T19:24:00Z,27.4847,-97.3181,0.0,5.8,157.0,6.8,'11111222,11111222,11111222' 
TCOON,ioos:station:TCOON:013:1,2017-01-01T19:30:00Z,27.4847,-97.3181,0.0,5.1,160.0,6.3,'11111222,11111222,11111222' 
TCOON,ioos:station:TCOON:013:1,2017-01-01T19:36:00Z,27.4847,-97.3181,0.0,5.1,161.0,6.1,'11111222,11111222,11111222' 
TCOON,ioos:station:TCOON:013:1,2017-01-01T19:42:00Z,27.4847,-97.3181,0.0,4.6,165.0,7.0,'11111222,11111222,11111222' 
TCOON,ioos:station:TCOON:013:1,2017-01-01T19:48:00Z,27.4847,-97.3181,0.0,4.3,161.0,5.6,'11111222,11111222,11111222' 
TCOON,ioos:station:TCOON:013:1,2017-01-01T19:54:00Z,27.4847,-97.3181,0.0,4.9,166.0,5.8,'11111222,11111222,11111222' 
TCOON,ioos:station:TCOON:013:1,2017-01-01T20:00:00Z,27.4847,-97.3181,0.0,4.1,153.0,5.0,'11111222,11111222,11111222' 
TCOON,ioos:station:TCOON:013:1,2017-01-01T20:06:00Z,27.4847,-97.3181,0.0,3.8,152.0,4.8,'11111222,11111222,11111222' 
TCOON,ioos:station:TCOON:013:1,2017-01-01T20:12:00Z,27.4847,-97.3181,0.0,3.7,136.0,5.0,'11111222,11111222,11111222' 
TCOON,ioos:station:TCOON:013:1,2017-01-01T20:18:00Z,27.4847,-97.3181,0.0,3.8,159.0,5.7,'1111122,1111122,1111122' 
TCOON,ioos:station:TCOON:013:1,2017-01-01T20:24:00Z,27.4847,-97.3181,0.0,3.7,144.0,4.9,'11111222,11111222,11111222' 
TCOON,ioos:station:TCOON:013:1,2017-01-01T20:30:00Z,27.4847,-97.3181,0.0,3.6,136.0,4.3,'11111222,11111222,11111222' 